N83B KLGB-KSLC

Flight info

Callsign N83B
Flight time 1h 5m
Altitude 41000
Route ANAHM1 HEC J107 MLF QWENN6
Aircraft C25B/M-SDE2E3FGHRWXY/LB1

Departure

Time 2026-05-06 16:05
Airport Long Beach International Airport (KLGB)

Arrival

Time 2026-05-06 17:11
Airport Salt Lake City International Airport (KSLC)
Time Latitude Longitude Altitude Speed Heading
2026-05-06 15:43 33.81238 -118.15345 46 ft 0 kts 91°
2026-05-06 15:45 33.81238 -118.15346 46 ft 0 kts 91°
2026-05-06 15:58 33.81238 -118.15343 46 ft 4 kts 91°
2026-05-06 15:59 33.81246 -118.15326 45 ft 3 kts
2026-05-06 15:59 33.81259 -118.15326 45 ft 0 kts
2026-05-06 16:01 33.81301 -118.15315 45 ft 10 kts 46°
2026-05-06 16:01 33.81309 -118.15223 44 ft 13 kts 89°
2026-05-06 16:01 33.81309 -118.15105 42 ft 15 kts 90°
2026-05-06 16:01 33.81309 -118.14966 41 ft 18 kts 90°
2026-05-06 16:02 33.81310 -118.14810 39 ft 14 kts 90°
2026-05-06 16:02 33.81292 -118.14732 40 ft 11 kts 130°
2026-05-06 16:02 33.81239 -118.14661 39 ft 12 kts 131°
2026-05-06 16:02 33.81177 -118.14579 37 ft 14 kts 132°
2026-05-06 16:03 33.81106 -118.14486 36 ft 16 kts 134°
2026-05-06 16:03 33.81026 -118.14389 35 ft 17 kts 135°
2026-05-06 16:03 33.80940 -118.14286 34 ft 18 kts 134°
2026-05-06 16:03 33.80850 -118.14176 33 ft 19 kts 134°
2026-05-06 16:04 33.80769 -118.14077 31 ft 7 kts 135°
2026-05-06 16:04 33.80726 -118.14026 30 ft 10 kts 135°
2026-05-06 16:04 33.80671 -118.13959 29 ft 12 kts 134°
2026-05-06 16:04 33.80660 -118.13864 28 ft 14 kts 53°
2026-05-06 16:05 33.80706 -118.13844 29 ft 8 kts 316°
2026-05-06 16:05 33.80927 -118.14110 34 ft 106 kts 315°
2026-05-06 16:05 33.81673 -118.15054 467 ft 190 kts 311°
2026-05-06 16:05 33.82683 -118.16393 1313 ft 232 kts 311°
2026-05-06 16:06 33.83747 -118.17892 2301 ft 240 kts 306°
2026-05-06 16:06 33.84378 -118.19766 3190 ft 249 kts 277°
2026-05-06 16:06 33.84114 -118.21829 4086 ft 257 kts 248°
2026-05-06 16:06 33.82980 -118.23557 4771 ft 273 kts 219°
2026-05-06 16:07 33.81237 -118.24415 5580 ft 278 kts 188°
2026-05-06 16:07 33.79315 -118.24098 6388 ft 281 kts 156°
2026-05-06 16:07 33.77797 -118.22672 7161 ft 279 kts 125°
2026-05-06 16:07 33.77000 -118.20573 7914 ft 278 kts 104°
2026-05-06 16:08 33.76484 -118.18328 8664 ft 280 kts 103°
2026-05-06 16:08 33.76006 -118.16051 9427 ft 281 kts 100°
2026-05-06 16:08 33.76062 -118.13743 10118 ft 279 kts 70°
2026-05-06 16:08 33.76825 -118.11604 10798 ft 280 kts 65°
2026-05-06 16:09 33.77487 -118.09396 11447 ft 283 kts 70°
2026-05-06 16:09 33.77995 -118.07098 12098 ft 286 kts 73°
2026-05-06 16:09 33.78497 -118.04782 12734 ft 287 kts 70°
2026-05-06 16:09 33.79128 -118.02494 13364 ft 290 kts 69°
2026-05-06 16:10 33.79715 -118.00166 13990 ft 292 kts 70°
2026-05-06 16:10 33.80311 -117.97851 14540 ft 294 kts 69°
2026-05-06 16:10 33.80916 -117.95495 15114 ft 296 kts 70°
2026-05-06 16:10 33.81538 -117.93125 15668 ft 299 kts 69°
2026-05-06 16:11 33.85856 -117.76371 19179 ft 314 kts 70°
2026-05-06 16:11 33.89963 -117.60339 21902 ft 325 kts 69°
2026-05-06 16:11 33.90683 -117.57757 22292 ft 325 kts 63°
2026-05-06 16:11 33.91776 -117.55382 22693 ft 324 kts 55°
2026-05-06 16:12 33.93178 -117.53260 23070 ft 324 kts 44°
2026-05-06 16:12 33.94855 -117.51451 23453 ft 325 kts 36°
2026-05-06 16:12 33.96787 -117.50030 23833 ft 326 kts 27°
2026-05-06 16:12 33.98826 -117.48821 24151 ft 328 kts 26°
2026-05-06 16:13 34.00866 -117.47587 24476 ft 329 kts 26°
2026-05-06 16:13 34.13356 -117.40080 26779 ft 327 kts 27°
2026-05-06 16:13 34.29369 -117.30412 30789 ft 316 kts 27°
2026-05-06 16:13 34.44850 -117.21029 34759 ft 307 kts 27°
2026-05-06 16:14 34.58417 -117.08599 38017 ft 322 kts 61°
2026-05-06 16:14 34.61365 -116.96658 39748 ft 328 kts 64°
2026-05-06 16:14 34.63226 -116.92083 40306 ft 331 kts 62°
2026-05-06 16:14 34.65834 -116.84739 41088 ft 341 kts 63°
2026-05-06 16:15 34.66822 -116.82061 41094 ft 352 kts 63°
2026-05-06 16:15 34.67805 -116.79360 41104 ft 355 kts 64°
2026-05-06 16:15 34.69799 -116.73822 41108 ft 360 kts 64°
2026-05-06 16:16 34.71911 -116.67975 41105 ft 365 kts 64°
2026-05-06 16:16 34.87868 -116.35132 41078 ft 366 kts 36°
2026-05-06 16:17 34.91640 -116.30939 41085 ft 370 kts 46°
2026-05-06 16:17 34.95018 -116.26172 41082 ft 372 kts 45°
2026-05-06 16:18 34.98601 -116.21616 41088 ft 373 kts 45°
2026-05-06 16:18 35.02116 -116.16942 41088 ft 374 kts 45°
2026-05-06 16:19 35.05669 -116.12292 41092 ft 375 kts 45°
2026-05-06 16:19 35.09215 -116.07614 41093 ft 376 kts 45°
2026-05-06 16:20 35.12776 -116.02920 41097 ft 377 kts 45°
2026-05-06 16:20 35.16308 -115.98253 41096 ft 377 kts 45°
2026-05-06 16:21 35.19870 -115.93539 41099 ft 378 kts 45°
2026-05-06 16:21 35.23436 -115.88817 41102 ft 378 kts 45°
2026-05-06 16:22 35.27008 -115.84079 41107 ft 379 kts 45°
2026-05-06 16:22 35.30584 -115.79332 41106 ft 379 kts 45°
2026-05-06 16:23 35.33558 -115.75377 41105 ft 380 kts 45°
2026-05-06 16:23 35.37136 -115.70613 41111 ft 380 kts 46°
2026-05-06 16:24 35.40729 -115.65866 41107 ft 381 kts 46°
2026-05-06 16:24 35.44290 -115.61046 41110 ft 381 kts 46°
2026-05-06 16:25 35.47884 -115.56265 41107 ft 382 kts 46°
2026-05-06 16:25 35.51469 -115.51455 41112 ft 382 kts 46°
2026-05-06 16:26 35.55061 -115.46641 41107 ft 382 kts 46°
2026-05-06 16:26 35.58645 -115.41830 41109 ft 382 kts 46°
2026-05-06 16:27 35.62207 -115.37036 41106 ft 382 kts 46°
2026-05-06 16:27 35.65791 -115.32209 41105 ft 382 kts 46°
2026-05-06 16:28 35.69377 -115.27373 41103 ft 383 kts 46°
2026-05-06 16:28 35.72967 -115.22525 41103 ft 383 kts 46°
2026-05-06 16:29 35.76557 -115.17671 41101 ft 383 kts 46°
2026-05-06 16:29 35.80145 -115.12809 41108 ft 383 kts 46°
2026-05-06 16:30 35.83126 -115.08765 41106 ft 384 kts 46°
2026-05-06 16:30 35.87321 -115.03066 41112 ft 384 kts 46°
2026-05-06 16:31 35.90907 -114.98189 41072 ft 384 kts 46°
2026-05-06 16:31 35.94468 -114.93337 41071 ft 384 kts 46°
2026-05-06 16:32 35.98049 -114.88451 41072 ft 384 kts 46°
2026-05-06 16:32 36.02170 -114.84382 41074 ft 380 kts 30°
2026-05-06 16:33 36.06675 -114.80966 41062 ft 380 kts 30°
2026-05-06 16:34 36.13440 -114.75805 41029 ft 381 kts 30°
2026-05-06 16:34 36.17951 -114.72359 41014 ft 381 kts 30°
2026-05-06 16:35 36.22468 -114.68906 40996 ft 381 kts 30°
2026-05-06 16:35 36.26981 -114.65451 40987 ft 381 kts 30°
2026-05-06 16:36 36.31469 -114.62007 40979 ft 381 kts 30°
2026-05-06 16:36 36.35982 -114.58541 40977 ft 382 kts 30°
2026-05-06 16:37 36.40500 -114.55066 40978 ft 382 kts 30°
2026-05-06 16:37 36.45019 -114.51587 40981 ft 382 kts 30°
2026-05-06 16:38 36.49552 -114.48135 40982 ft 382 kts 29°
2026-05-06 16:38 36.54100 -114.44710 40984 ft 382 kts 30°
2026-05-06 16:39 36.58642 -114.41258 40986 ft 383 kts 30°
2026-05-06 16:39 36.63186 -114.37813 40991 ft 383 kts 30°
2026-05-06 16:40 36.67734 -114.34353 40987 ft 383 kts 30°
2026-05-06 16:40 36.72281 -114.30892 40997 ft 383 kts 30°
2026-05-06 16:41 36.76832 -114.27423 40995 ft 384 kts 30°
2026-05-06 16:41 36.81340 -114.23936 40998 ft 384 kts 30°
2026-05-06 16:42 36.85883 -114.20429 41002 ft 384 kts 30°
2026-05-06 16:42 36.90422 -114.16914 41005 ft 384 kts 30°
2026-05-06 16:43 36.94966 -114.13393 41008 ft 384 kts 30°
2026-05-06 16:43 36.99511 -114.09865 41012 ft 384 kts 30°
2026-05-06 16:44 37.04057 -114.06332 41010 ft 385 kts 30°
2026-05-06 16:44 37.08602 -114.02795 41010 ft 385 kts 30°
2026-05-06 16:45 37.21375 -113.92830 41026 ft 386 kts 30°
2026-05-06 16:45 37.28315 -113.87396 41017 ft 386 kts 30°
2026-05-06 16:45 37.30601 -113.85606 40831 ft 391 kts 30°
2026-05-06 16:46 37.36984 -113.80589 39886 ft 393 kts 30°
2026-05-06 16:46 37.55084 -113.66335 36976 ft 373 kts 31°
2026-05-06 16:46 37.65604 -113.58003 35191 ft 361 kts 32°
2026-05-06 16:46 37.67725 -113.56318 35028 ft 359 kts 32°
2026-05-06 16:47 37.69828 -113.54643 35032 ft 357 kts 32°
2026-05-06 16:47 37.74009 -113.51328 35042 ft 354 kts 32°
2026-05-06 16:48 37.78161 -113.48022 35051 ft 352 kts 32°
2026-05-06 16:48 37.82261 -113.44756 35051 ft 350 kts 32°
2026-05-06 16:49 37.92822 -113.36315 35046 ft 347 kts 32°
2026-05-06 16:49 38.25180 -113.10160 35102 ft 344 kts 32°
2026-05-06 16:50 38.50994 -112.93269 35145 ft 344 kts 21°
2026-05-06 16:50 38.86265 -112.74428 35087 ft 343 kts 23°
2026-05-06 16:51 38.96713 -112.68790 34999 ft 345 kts 23°
2026-05-06 16:51 38.98979 -112.67561 34430 ft 361 kts 23°
2026-05-06 16:51 39.01307 -112.66300 33914 ft 363 kts 23°
2026-05-06 16:51 39.03634 -112.65037 33428 ft 362 kts 24°
2026-05-06 16:52 39.05953 -112.63777 32945 ft 363 kts 24°
2026-05-06 16:52 39.08284 -112.62518 32460 ft 363 kts 24°
2026-05-06 16:52 39.10609 -112.61249 31982 ft 363 kts 24°
2026-05-06 16:52 39.12938 -112.59986 31503 ft 363 kts 24°
2026-05-06 16:53 39.15939 -112.58349 30887 ft 364 kts 24°
2026-05-06 16:53 39.25189 -112.53305 28980 ft 357 kts 24°
2026-05-06 16:53 39.34218 -112.48277 27134 ft 351 kts 25°
2026-05-06 16:53 39.43101 -112.43177 25287 ft 348 kts 25°
2026-05-06 16:54 39.51921 -112.38100 23394 ft 345 kts 25°
2026-05-06 16:54 39.60543 -112.33129 21557 ft 334 kts 25°
2026-05-06 16:54 39.68966 -112.28261 19771 ft 330 kts 25°
2026-05-06 16:54 39.74338 -112.25143 18658 ft 329 kts 24°
2026-05-06 16:55 39.76426 -112.23939 18204 ft 328 kts 24°
2026-05-06 16:55 39.78491 -112.22733 17755 ft 323 kts 24°
2026-05-06 16:55 39.80529 -112.21554 17331 ft 318 kts 24°
2026-05-06 16:55 39.82537 -112.20388 16913 ft 315 kts 24°
2026-05-06 16:56 39.84525 -112.19227 16502 ft 312 kts 24°
2026-05-06 16:56 39.86498 -112.18082 16091 ft 309 kts 24°
2026-05-06 16:56 39.88456 -112.16941 15687 ft 307 kts 24°
2026-05-06 16:56 39.90404 -112.15804 15284 ft 306 kts 24°
2026-05-06 16:57 39.92341 -112.14678 14884 ft 304 kts 24°
2026-05-06 16:57 39.94269 -112.13551 14481 ft 303 kts 24°
2026-05-06 16:57 39.96194 -112.12429 14078 ft 303 kts 24°
2026-05-06 16:57 39.98151 -112.11473 13923 ft 295 kts 15°
2026-05-06 16:58 40.00084 -112.10775 13915 ft 284 kts 18°
2026-05-06 16:58 40.01929 -112.09972 13913 ft 275 kts 18°
2026-05-06 16:58 40.03746 -112.09248 13916 ft 272 kts 17°
2026-05-06 16:58 40.05549 -112.08535 13918 ft 270 kts 17°
2026-05-06 16:59 40.07339 -112.07829 13915 ft 268 kts 17°
2026-05-06 16:59 40.09127 -112.07113 13827 ft 270 kts 17°
2026-05-06 16:59 40.10928 -112.06391 13681 ft 272 kts 18°
2026-05-06 16:59 40.12744 -112.05667 13520 ft 271 kts 17°
2026-05-06 17:00 40.14542 -112.04954 13347 ft 270 kts 18°
2026-05-06 17:00 40.16336 -112.04230 13178 ft 269 kts 17°
2026-05-06 17:00 40.18127 -112.03521 13003 ft 269 kts 17°
2026-05-06 17:00 40.19893 -112.02804 12831 ft 269 kts 17°
2026-05-06 17:01 40.21689 -112.02092 12649 ft 270 kts 17°
2026-05-06 17:01 40.23485 -112.01373 12478 ft 270 kts 17°
2026-05-06 17:01 40.25284 -112.00649 12303 ft 271 kts 17°
2026-05-06 17:01 40.27081 -111.99929 12138 ft 271 kts 17°
2026-05-06 17:02 40.28888 -111.99204 11951 ft 272 kts 17°
2026-05-06 17:02 40.30695 -111.98476 11779 ft 272 kts 17°
2026-05-06 17:02 40.32512 -111.97749 11598 ft 273 kts 16°
2026-05-06 17:02 40.34332 -111.97017 11416 ft 274 kts 17°
2026-05-06 17:03 40.36156 -111.96283 11237 ft 275 kts 16°
2026-05-06 17:03 40.37989 -111.95548 11053 ft 276 kts 17°
2026-05-06 17:03 40.39716 -111.94503 10974 ft 273 kts 33°
2026-05-06 17:03 40.41298 -111.93208 10971 ft 266 kts 21°
2026-05-06 17:04 40.43068 -111.92572 10977 ft 261 kts 10°
2026-05-06 17:04 40.44864 -111.92539 10978 ft 258 kts 354°
2026-05-06 17:04 40.46649 -111.92748 10927 ft 258 kts 356°
2026-05-06 17:04 40.48473 -111.92939 10533 ft 266 kts 354°
2026-05-06 17:05 40.50332 -111.93162 10099 ft 270 kts 354°
2026-05-06 17:05 40.52180 -111.93372 9582 ft 265 kts 354°
2026-05-06 17:05 40.53995 -111.93589 9168 ft 258 kts 354°
2026-05-06 17:05 40.55752 -111.93784 8802 ft 250 kts 354°
2026-05-06 17:06 40.57460 -111.93988 8463 ft 243 kts 354°
2026-05-06 17:06 40.59132 -111.94172 8133 ft 238 kts 354°
2026-05-06 17:06 40.60738 -111.94366 7818 ft 232 kts 354°
2026-05-06 17:06 40.62323 -111.94544 7518 ft 226 kts 354°
2026-05-06 17:07 40.63842 -111.94726 7195 ft 204 kts 354°
2026-05-06 17:07 40.65142 -111.94870 6863 ft 173 kts 354°
2026-05-06 17:07 40.66235 -111.95001 6609 ft 146 kts 355°
2026-05-06 17:07 40.67185 -111.95116 6359 ft 130 kts 354°
2026-05-06 17:08 40.68056 -111.95208 6142 ft 121 kts 356°
2026-05-06 17:08 40.68871 -111.95312 5973 ft 116 kts 355°
2026-05-06 17:08 40.69663 -111.95391 5810 ft 112 kts 354°
2026-05-06 17:08 40.70449 -111.95496 5673 ft 116 kts 355°
2026-05-06 17:09 40.71259 -111.95582 5557 ft 118 kts 354°
2026-05-06 17:09 40.72089 -111.95676 5436 ft 121 kts 356°
2026-05-06 17:09 40.72937 -111.95777 5279 ft 123 kts 352°
2026-05-06 17:09 40.73788 -111.95876 5094 ft 123 kts 354°
2026-05-06 17:10 40.74633 -111.95973 4893 ft 121 kts 351°
2026-05-06 17:10 40.75455 -111.96080 4678 ft 116 kts 352°
2026-05-06 17:10 40.76258 -111.96167 4500 ft 114 kts 354°
2026-05-06 17:10 40.77043 -111.96207 4334 ft 111 kts 356°
2026-05-06 17:11 40.77789 -111.96208 4233 ft 100 kts 355°
2026-05-06 17:11 40.78395 -111.96214 4226 ft 74 kts
2026-05-06 17:11 40.78751 -111.96209 4229 ft 36 kts 360°
2026-05-06 17:11 40.78958 -111.96211 4230 ft 24 kts
2026-05-06 17:12 40.79082 -111.96211 4229 ft 8 kts
2026-05-06 17:12 40.79146 -111.96167 4228 ft 14 kts 71°
2026-05-06 17:12 40.79149 -111.96075 4229 ft 0 kts 91°
2026-05-06 17:13 40.79148 -111.96052 4229 ft 6 kts 92°
2026-05-06 17:13 40.79117 -111.96004 4229 ft 10 kts 179°
2026-05-06 17:14 40.79027 -111.96004 4229 ft 16 kts 180°
2026-05-06 17:14 40.78899 -111.96003 4229 ft 21 kts 181°
2026-05-06 17:14 40.78748 -111.96003 4229 ft 23 kts 179°
2026-05-06 17:14 40.78586 -111.96003 4229 ft 24 kts 180°
2026-05-06 17:15 40.78415 -111.96003 4229 ft 25 kts 180°
2026-05-06 17:15 40.78246 -111.96003 4229 ft 21 kts 180°
2026-05-06 17:15 40.78095 -111.96003 4229 ft 22 kts 180°
2026-05-06 17:15 40.77947 -111.96003 4229 ft 20 kts 180°
2026-05-06 17:16 40.77853 -111.96034 4229 ft 15 kts 225°
2026-05-06 17:16 40.77753 -111.96064 4229 ft 14 kts 179°
2026-05-06 17:16 40.77690 -111.96063 4229 ft 14 kts 179°
2026-05-06 17:16 40.77626 -111.96057 4229 ft 7 kts 173°
2026-05-06 17:17 40.77593 -111.96048 4229 ft 8 kts 149°
2026-05-06 17:17 40.77579 -111.95976 4229 ft 9 kts 89°
2026-05-06 17:17 40.77584 -111.95917 4229 ft 5 kts 38°
2026-05-06 17:17 40.77606 -111.95913 4229 ft 2 kts 357°
2026-05-06 17:18 40.77609 -111.95913 4229 ft 0 kts 356°